Regional Weather Roundup
Issued by NWS

Home | Current Version | Previous Version | Graphics & Text | Print | Product List | Glossary On
Versions: 1 2 3 4 5 6 7 8 9 10 11 12 13 14 15 16 17 18 19 20 21 22 23 24 25 26 27 28 29 30 31 32 33 34 35 36 37 38 39 40 41 42 43 44 45 46 47 48 49 50
000
ASUS43 KLSX 201007
RWRMO

WEATHER SUMMARY FOR MISSOURI
NATIONAL WEATHER SERVICE SPRINGFIELD MO
500 AM CDT MON OCT 20 2014

NOTE: "FAIR" INDICATES FEW OR NO CLOUDS BELOW 12,000 FEET WITH NO
       SIGNIFICANT WEATHER AND/OR OBSTRUCTIONS TO VISIBILITY.
       CURRENT SKY AND/OR WEATHER CONDITIONS ARE NOT AVAILABLE FOR
       CHILLICOTHE AND FARMINGTON.

MOZ001>031-035>038-043-044-053-054-201100-
...NORTHERN AND WESTERN MISSOURI...

CITY           SKY/WX    TMP DP  RH WIND       PRES   REMARKS
KANSAS CTY INT CLEAR     51  49  92 SW7       29.98F
KANSAS C DTWN  CLEAR     55  51  86 CALM      29.98F
LEE`S SUMMIT   CLEAR     53  50  89 SW8       29.99F
ST JOSEPH      FOG       42  42 100 CALM      29.99S VSB 3/4
CHILLICOTHE      N/A     54  49  83 CALM      29.97S
KIRKSVILLE     CLEAR     54  49  83 W9        29.95S

$$
MOZ066>068-077>081-088>096-101>105-201100-
...SOUTHWEST MISSOURI...

CITY           SKY/WX    TMP DP  RH WIND       PRES   REMARKS
SPRINGFIELD    CLOUDY    54  51  90 S5        30.03S
JOPLIN         CLOUDY    58  53  84 S7        30.04S

$$
MOZ032>034-039>042-045>050-055>058-069>072-201100-
...CENTRAL MISSOURI...

CITY           SKY/WX    TMP DP  RH WIND       PRES   REMARKS
COLUMBIA       CLEAR     50  49  96 SW6       29.98F
JEFFERSON CITY CLEAR     49  47  93 CALM      29.99F
ROLLA          CLEAR     50  45  83 SW9       29.99F
SEDALIA        MOCLDY    55  51  86 SW10      30.00S
WHITEMAN AFB   PTCLDY    55  52  88 SW8       29.99S
OSAGE BEACH    CLOUDY    48  45  87 CALM      30.01S

$$
MOZ051-052-059>065-201100-
...EAST CENTRAL MISSOURI...

CITY           SKY/WX    TMP DP  RH WIND       PRES   REMARKS
ST LOUIS INTL  PTCLDY    56  47  71 SW3       29.97F
SPIRIT OF STL  PTCLDY    55  47  74 SW8       29.97F
ST CHARLES     CLEAR     49  47  93 SW5       29.96F

$$
MOZ072>076-082>087-097>100-106>115-201100-
...SOUTH CENTRAL AND SOUTHEAST MISSOURI...

CITY           SKY/WX    TMP DP  RH WIND       PRES   REMARKS
CAPE GIRARDEAU PTCLDY    48  46  93 CALM      30.04F
FARMINGTON     CLOUDY    52  46  82 CALM      30.03S
POPLAR BLUFF   MOCLDY    51  46  83 CALM      30.03F
WEST PLAINS    MOCLDY    52  47  83 W5        30.04F

$$



USA.gov is the U.S. government's official web portal to all federal, state and local government web resources and services.